Header for Extended Forecast Station List Page

Search by: ID | Name | Date | Parm | Value | Avg | % Avg
Sort by: ID | Name | Date | Parm | Value | Avg | % Avg

Enter search or view all records.

Click on id for station plot
#IDNameDateParmValueAvg% Avg
0MAGI1BIG WOOD-MAGIC DAM06-14-2021INFLOW (KAF)87910
1HOTI1BRUNEAU-NEAR HOT SPRINGS06-14-2021DISCHARGE (KAF)74915
2RIDI1WILLOW CREEK-RIRIE DAM06-14-2021INFLOW (KAF)1719
3LWRI1LITTLE WOOD-LITTLE WOOD DAM06-14-2021INFLOW (KAF)72625
4TCHW1WALLA WALLA-NEAR TOUCHET06-14-2021DISCHARGE (KAF)31027
5HWRI1BIG LOST-AT HOWELL RANCH NEAR CHILLY06-14-2021DISCHARGE (KAF)3010030
6CHEI1FALL RIVER-NEAR CHESTER06-14-2021DISCHARGE (KAF)4213032
7MACI1BIG LOST-MACKAY RESERVOIR NEAR MACKAY06-14-2021INFLOW (KAF)318836
8HALI1BIG WOOD-AT HAILEY06-14-2021DISCHARGE (KAF)4512636
9DEDI1DEADWOOD-NEAR LOWMAN06-14-2021INFLOW (KAF)185236
10PIHI1PORTNEUF-AT POCATELLO06-14-2021DISCHARGE (KAF)92437
11ARAI1SF BOISE-ANDERSON RANCH DAM06-14-2021INFLOW (KAF)6216937
12JLKW4SNAKE-JACKSON LAKE AT DAM06-14-2021INFLOW (KAF)17042140
13CSDI1NF PAYETTE-CASCADE DAM06-14-2021INFLOW (KAF)5914241
14SERO3JOHN DAY-AT SERVICE CK06-14-2021DISCHARGE (KAF)5311944
15LAUW1KETTLE-AT LAURIER06-14-2021DISCHARGE (KAF)22750745
16DLGM8CLARK FORK-AT DEER LODGE06-14-2021DISCHARGE (KAF)234848
17MYKO3MCKAY CREEK-NEAR PILOT ROCK06-14-2021DISCHARGE (KAF)0150
18WHBI1SALMON-AT WHITEBIRD06-14-2021DISCHARGE (KAF)1402275551
19ORFI1CLEARWATER-AT OROFINO06-14-2021DISCHARGE (KAF)712138851
20MONO3NF JOHN DAY-AT MONUMENT06-14-2021DISCHARGE (KAF)428351
21LEOI1KOOTENAI-AT LEONIA06-14-2021DISCHARGE (KAF)1867350853
22BITM8BITTERROOT-NEAR MISSOULA06-14-2021DISCHARGE (KAF)30356054
23OWYO3OWYHEE-OWYHEE DAM06-14-2021INFLOW (KAF)336154
24EMMI1PAYETTE-NEAR EMMETT06-14-2021DISCHARGE (KAF)32860954
25REXI1HENRYS FORK-AT REXBURG06-14-2021DISCHARGE (KAF)23242255
26BUDW1BUMPING-BUMPING LAKE DAM06-14-2021INFLOW (KAF)274856
27PLDI1SF SNAKE-PALISADES DAM06-14-2021INFLOW (KAF)1259216858
28ALPW4SNAKE-NEAR ALPINE06-14-2021DISCHARGE (KAF)977161960
29JKSW4SNAKE-NEAR JACKSON06-14-2021DISCHARGE (KAF)823132862
30DWRI1NF CLEARWATER-DWORSHAK DAM06-14-2021INFLOW (KAF)47175662
31SRGM8CLARK FORK-AT ST REGIS06-14-2021DISCHARGE (KAF)1048166763
32LLKW1SPOKANE-AT LONGLAKE06-14-2021INFLOW (KAF)50680463
33FCFM8NF FLATHEAD-NEAR COLUMBIA FALLS06-14-2021DISCHARGE (KAF)48175364
34BELM8CLARK FORK-BELOW MISSOULA06-14-2021DISCHARGE (KAF)829128664
35WGCM8MF FLATHEAD-NEAR WEST GLACIER06-14-2021DISCHARGE (KAF)45670465
36STRM8ST. REGIS-NEAR ST. REGIS06-14-2021DISCHARGE (KAF)426465
37COEI1COEUR D ALENE-COEUR D ALENE LAKE06-14-2021INFLOW (KAF)29445065
38WSRI1WEISER-NEAR WEISER06-14-2021DISCHARGE (KAF)548465
39ANAW1SNAKE-NEAR ANATONE06-14-2021DISCHARGE (KAF)4376674265
40IPDI1HENRYS FORK-ISLAND PARK DAM06-14-2021INFLOW (KAF)10816466
41ANTI1HENRYS FORK-AT ST. ANTHONY06-14-2021DISCHARGE (KAF)23636066
42TEAI1TETON-NEAR ST. ANTHONY06-14-2021DISCHARGE (KAF)16324666
43HHWM8SF FLATHEAD-HUNGRY HORSE DAM06-14-2021INFLOW (KAF)48673067
44KERM8FLATHEAD-SELI’Š KSANKA QLISPE’ DAM06-14-2021INFLOW (KAF)1802270567
45ALFW1PEND OREILLE-ALBENI FALLS DAM06-14-2021INFLOW (KAF)3792561668
46GCDW1COLUMBIA-GRAND COULEE DAM06-14-2021INFLOW (KAF)218373158069
47SNAI1SNAKE-AT BLACKFOOT06-14-2021DISCHARGE (KAF)59285969
48LYDM8KOOTENAI-LIBBY DAM06-14-2021INFLOW (KAF)2590372270
49NOXM8CLARK FORK-NOXON RAPIDS DAM06-14-2021INFLOW (KAF)3377484070
50SATI1ST MARIES-NEAR SANTA06-14-2021DISCHARGE (KAF)202870
51TONW1OKANOGAN-NEAR TONASKET06-14-2021DISCHARGE (KAF)46766670
52WEII1SNAKE-AT WEISER06-14-2021DISCHARGE (KAF)2180309870
53CABI1CLARK FORK-CABINET GORGE DAM06-14-2021INFLOW (KAF)3712517972
54PRWW1COLUMBIA-PRIEST RAPIDS DAM06-14-2021INFLOW (KAF)235543268872
55SWAI1SNAKE-BELOW SWAN FALLS06-14-2021DISCHARGE (KAF)1421196272
56BRNI1SNAKE-BROWNLEE DAM06-14-2021INFLOW (KAF)2306320872
57TRYO3GRANDE RONDE-TROY06-14-2021DISCHARGE (KAF)28739972
58MCDW1COLUMBIA-MCNARY DAM06-14-2021INFLOW (KAF)308114281872
59JDAO3COLUMBIA-JOHN DAY DAM06-14-2021INFLOW (KAF)313274345672
60CFMM8FLATHEAD-AT COLUMBIA FALLS06-14-2021DISCHARGE (KAF)1606221273
61WANW1COLUMBIA-WANAPUM DAM06-14-2021INFLOW (KAF)235493207273
62BFTI1SNAKE-NEAR BLACKFOOT06-14-2021DISCHARGE (KAF)57078273
63LGSW1SNAKE-LITTLE GOOSE DAM06-14-2021INFLOW (KAF)6632910673
64LMNW1SNAKE-LOWER MONUMENTAL DAM06-14-2021INFLOW (KAF)6687912273
65PITW1KLICKITAT-NEAR PITT06-14-2021DISCHARGE (KAF)17524073
66BERO3MALHEUR-AGENCY VALLEY DAM06-14-2021INFLOW (KAF)7974
67LGDW1SNAKE-LOWER GRANITE DAM06-14-2021INFLOW (KAF)6694908374
68IHDW1SNAKE-ICE HARBOR DAM06-14-2021INFLOW (KAF)6699905474
69PATW1METHOW-NEAR PATEROS06-14-2021DISCHARGE (KAF)27036075
70RCCM8ROCK CREEK-NEAR CLINTON06-14-2021DISCHARGE (KAF)10513876
71ABOM8CLARK FORK-ABOVE MISSOULA06-14-2021DISCHARGE (KAF)53069676
72BIGI1BOISE-AT GLENWOOD BRIDGE06-14-2021DISCHARGE (KAF)18423777
73ARDW1ENTIAT-NEAR ARDENVOIR06-14-2021DISCHARGE (KAF)769778
74SIFI1SNAKE-AB EAGLE ROCK NR IDAHO FALLS06-14-2021DISCHARGE (KAF)1329169778
75AFRI1SNAKE-AMERICAN FALLS RESERVOIR06-14-2021INFLOW (KAF)1108142278
76PARI1BOISE-NEAR PARMA06-14-2021DISCHARGE (KAF)18723779
77BONO3COLUMBIA-BONNEVILLE DAM06-14-2021INFLOW (KAF)321704096579
78TDAO3COLUMBIA-THE DALLES DAM06-14-2021INFLOW (KAF)317453988280
79PDTO3UMATILLA-AT PENDLETON06-14-2021DISCHARGE (KAF)131681
80UNDW1WHITE SALMON-NEAR UNDERWOOD06-14-2021DISCHARGE (KAF)15218881
81WELW1COLUMBIA-WELLS DAM06-14-2021INFLOW (KAF)223632683883
82RRHW1COLUMBIA-ROCKY REACH DAM06-14-2021INFLOW (KAF)228692745683
83PRTI1PRIEST-NEAR PRIEST RIVER06-14-2021DISCHARGE (KAF)20824984
84CHJW1COLUMBIA-CHIEF JOSEPH DAM06-14-2021INFLOW (KAF)216202558085
85SHYI1SNAKE-NEAR SHELLEY06-14-2021DISCHARGE (KAF)1155136085
86GIBO3UMATILLA-NEAR GIBBON06-14-2021DISCHARGE (KAF)121585
87HODO3HOOD-NEAR TUCKER BRIDGE06-14-2021DISCHARGE (KAF)8710285
88BONM8BLACKFOOT-NEAR BONNER06-14-2021DISCHARGE (KAF)31636986
89PESW1WENATCHEE-AT PESHASTIN06-14-2021DISCHARGE (KAF)60867690
90NACW1NACHES-NEAR NACHES06-14-2021DISCHARGE (KAF)21823792
91CHDW1CHELAN-LAKE CHELAN DAM06-14-2021INFLOW (KAF)51054793
92CLFW1NACHES-NEAR CLIFFDEL06-14-2021DISCHARGE (KAF)14115293
93PARW1YAKIMA-NEAR PARKER06-14-2021DISCHARGE (KAF)12213193
94KIOW1YAKIMA-AT KIONA06-14-2021DISCHARGE (KAF)43245794
95HEII1SNAKE-NEAR HEISE06-14-2021DISCHARGE (KAF)2333246895
96MODO3DESCHUTES-AT MOODY NR BIGGS06-14-2021DISCHARGE (KAF)1062110696
97RILW1TIETON-RIMROCK LAKE NEAR RIMROCK06-14-2021INFLOW (KAF)10710998
98UMTW1YAKIMA-AT UMTANUM06-14-2021DISCHARGE (KAF)721713101
99EASW1YAKIMA-AT EASTON06-14-2021DISCHARGE (KAF)8079102
100SPDI1CLEARWATER-AT SPALDING06-14-2021DISCHARGE (KAF)23182277102
101WRMO3MALHEUR-WARM SPRINGS DAM06-14-2021INFLOW (KAF)22105
102KEDW1YAKIMA-KEECHELUS LAKE06-14-2021INFLOW (KAF)4536123
103TNAW1TEANAWAY-BELOW FORKS06-14-2021DISCHARGE (KAF)2318134
104CLUW1CLE ELUM-CLE ELUM LAKE06-14-2021INFLOW (KAF)206152136
105KADW1KACHESS-KACHESS DAM06-14-2021INFLOW (KAF)4429150
106UMAO3UMATILLA-NEAR UMATILLA06-14-2021DISCHARGE (KAF)3931407
107BFEI1KOOTENAI-AT BONNERS FERRY06-14-2021STAGE (FT)MMM
108DRMM8CLARK FORK-NR DRUMMOND06-14-2021DISCHARGE (KAF)82MM
109HOPI1PEND OREILLE-PEND OREILLE LAKE NR HOPE06-14-2021LAKE ELEVATION (FT)MMM
110SPOW1SPOKANE-AT SPOKANE06-14-2021DISCHARGE (KAF)353MM
111SJMI1ST JOE-AT ST MARIES06-14-2021STAGE (FT)MMM
112CIBW1COLUMBIA-AT INTL BOUNDARY06-14-2021DISCHARGE (KAF)21049MM
113MILI1SNAKE-AT MILNER06-14-2021DISCHARGE (KAF)M80M
114LUCI1BOISE-LUCKY PEAK DAM06-14-2021INFLOW (KAF)544MM
115BULO3BULLY CREEK-BULLY CREEK DAM06-14-2021INFLOW (KAF)M0M